Regional Weather Roundup
Issued by NWS Albany, NY

Home | Current Version | Previous Version | Text Only | Print | Product List | Glossary On
Versions: 1 2 3 4 5 6 7 8 9 10 11 12 13 14 15 16 17 18 19 20 21 22 23 24 25 26 27 28
000
ASUS41 KALY 231410
RWRALY

NEW YORK STATE HOURLY WEATHER ROUNDUP
NATIONAL WEATHER SERVICE ALBANY NY
900 AM EST THU NOV 23 2017

NOTE: "FAIR" INDICATES FEW OR NO CLOUDS BELOW 12,000 FEET WITH NO
SIGNIFICANT WEATHER AND/OR NO OBSTRUCTIONS TO VISIBILITY.

NYZ032-033-038>043-046>054-057>066-NYZ062>081-082-084-231500-
EAST


CITY           SKY/WX    TMP DP  RH WIND       PRES   REMARKS
ALBANY         MOSUNNY   32  19  58 W8        30.12S WCI  25
GLENS FALLS    SUNNY     26  16  65 N7        30.11F WCI  18
POUGHKEEPSIE   SUNNY     31  19  61 CALM      30.11S
NEWBURGH       SUNNY     30  23  74 CALM      30.10F
MONTGOMERY     SUNNY     33  18  53 NW8       30.09S WCI  26
WHITE PLAINS   SUNNY     32  19  58 NW5       30.09S WCI  27
ISLIP          MOSUNNY   37  22  54 NW7       30.10S WCI  32
NEW YORK CITY  MOSUNNY   36  21  54 NW10      30.12S WCI  28
CENTRAL PARK   SUNNY     33  19  56 NW3       30.14R
$$

NYZ005>009-017-018-044>046-055-056-231500-
CENTRAL


CITY           SKY/WX    TMP DP  RH WIND       PRES   REMARKS
FULTON         CLOUDY    29  24  82 SW5       30.13R WCI  24
SYRACUSE       CLOUDY    29  20  69 SW7       30.13S WCI  22
ROME           CLOUDY    27  22  81 W3        30.14R
ELMIRA         CLOUDY    29  20  69 W3        30.12S
BINGHAMTON     CLOUDY    26  17  68 NW6       30.07S WCI  19
MONTICELLO     CLOUDY    29  19  66 NW10G16   30.07S WCI  20
$$

NYZ026>034-041>043-087-231500-
NORTH


CITY           SKY/WX    TMP DP  RH WIND       PRES   REMARKS
WATERTOWN      CLOUDY    26  21  81 S3        30.12S
FORT DRUM      NOT AVBL
OGDENSBURG     FAIR      24  20  84 S3        30.11F
MASSENA        MOSUNNY   22  18  85 S7        30.14F WCI  13
SARANAC LAKE   CLOUDY    16  14  92 SW6       30.02S WCI   7
PLATTSBURGH    MOSUNNY   23  12  62 NW5       30.12F WCI  17
$$

NYZ001>004-010>016-019>021-085-231500-
WEST


CITY           SKY/WX    TMP DP  RH WIND       PRES   REMARKS
NIAGARA FALLS  CLOUDY    34  19  54 W9        30.11R WCI  27
BUFFALO        CLOUDY    30  23  75 S7        30.11S WCI  23
DUNKIRK        CLOUDY    32  25  75 S9        30.12R WCI  24
JAMESTOWN      CLOUDY    27  23  85 SW10      30.08R WCI  17
WELLSVILLE     CLOUDY    29  19  66 W6        30.06S WCI  23
ROCHESTER      PTSUNNY   31  23  72 SW8       30.13R WCI  23
PENN YAN       CLOUDY    30  18  60 SW7       30.11S WCI  23
$$

             KEY
       WCI = WIND CHILL INDEX
       VSB = VISIBILITY
       HX  = HEAT INDEX
$$




USA.gov is the U.S. government's official web portal to all federal, state and local government web resources and services.